Station BGNN4 - 8519483 - BERGEN POINT WEST REACH- NY

Sailing guide
Sailing guide
english français italiano spagnolo
english français italiano español
Sea - Seek
Station BGNN4 - 8519483 - BERGEN POINT WEST REACH- NY
Station BGNN4 - 8519483 - BERGEN POINT WEST REACH- NY

Weather report - Station BGNN4 - 8519483 - BERGEN POINT WEST REACH- NY

Time Wind speed knots Wind direction Pressure ----
October 2, 2014 1:48 am EDT 8 10 1018 Air Temperature:16.4
October 2, 2014 12:48 am EDT 6 30 1018 Air Temperature:16.4
October 1, 2014 11:48 pm EDT 7 50 1019 Air Temperature:16.8
October 1, 2014 10:18 pm EDT Air Temperature:17.7
October 1, 2014 9:30 pm EDT 8 30 1018 Air Temperature:17.9
October 1, 2014 8:48 pm EDT 5 30 1018 Air Temperature:18.3
October 1, 2014 7:48 pm EDT 6 20 1018 Air Temperature:18.4
October 1, 2014 6:48 pm EDT 7 30 1017 Air Temperature:18.1
October 1, 2014 5:48 pm EDT 8 20 1017 Air Temperature:17.4
October 1, 2014 4:48 pm EDT 9 30 1017 Air Temperature:17.5
October 1, 2014 3:48 pm EDT 8 10 1017 Air Temperature:17.6
October 1, 2014 2:48 pm EDT 9 20 1017 Air Temperature:17.4
October 1, 2014 1:42 pm EDT 11 10 1017 Air Temperature:17.5
October 1, 2014 12:48 pm EDT 8 20 1017 Air Temperature:16.9
October 1, 2014 11:48 am EDT 10 10 1016 Air Temperature:17
October 1, 2014 9:48 am EDT 8 20 1017 Air Temperature:16.4
October 1, 2014 8:48 am EDT 8 10 1017 Air Temperature:16.5
October 1, 2014 6:48 am EDT 10 360 1016 Air Temperature:16.9
October 1, 2014 5:48 am EDT 10 10 1016 Air Temperature:16.9
October 1, 2014 4:48 am EDT 9 10 1015 Air Temperature:17.2
October 1, 2014 3:48 am EDT 6 20 1015 Air Temperature:17.7
October 1, 2014 2:48 am EDT 3 80 1015 Air Temperature:17.6
October 1, 2014 1:42 am EDT 5 50 1016 Air Temperature:17.6
October 1, 2014 12:48 am EDT 3 90 1015 Air Temperature:17.3
September 30, 2014 11:48 pm EDT 3 90 1015 Air Temperature:18.3
September 30, 2014 10:48 pm EDT 4 90 1015 Air Temperature:18.4